Flag for Equatorial Guinea Weather past 2 weeks in Malabo, Equatorial Guinea

Now
77 °F

Passing clouds.


Feels Like: 78 °F
Forecast: 77 / 85 °F
Wind: No wind

Location: Malabo/Fernando Poo

Current Time: May 30, 2015 at 2:38:27 AM

Latest Report: May 30, 2015 at 1:00 AM


Visibility: N/A

Pressure: 29.89 "Hg

Humidity: 94%

Dew point: 75 °F

Location of MalaboLocation

Historic Weather in Malabo — Graph

°F

Malabo temperature yesterday

Maximum temperature yesterday: 88 °F (at 1:00 PM)
Minimum temperature yesterday: 75 °F (at 2:00 AM)
Average temperature yesterday: 81 °F

Past Weeks' High & Low Weather Summary

 TemperatureHumidityPressure
High90 °F (May 17, 2:00 PM)100% (May 15, 5:00 AM)29.98 "Hg (May 15, 5:00 AM)
Low72 °F (May 18, 7:00 AM)67% (May 25, 3:00 PM)29.80 "Hg (May 15, 5:00 PM)
Average81 °F86%29.89 "Hg
* Reported May 15 1:00 AM — May 30 1:00 AM, Malabo, Weather by CustomWeather, © 2015

Note: Actual official high and low records may vary slightly from our data, if they occured in-between our weather recording intervals... More about our weather records

Advertising

Malabo weather history for previous 24 hours

 ConditionsComfort  
Time TempWeatherWind HumidityBarometerVisibility
1:00 AM
Sat, May 30
77 °FPassing clouds.No wind94%29.89 "HgN/A
12:00 AM79 °FPassing clouds.No wind89%29.89 "HgN/A
11:00 PM
Fri, May 29
79 °FPassing clouds.No wind89%29.89 "HgN/A
10:00 PM81 °FPassing clouds.No wind84%29.89 "HgN/A
8:00 PM81 °FPassing clouds.6 mph89%29.86 "HgN/A
7:00 PM82 °FPassing clouds.5 mph84%29.83 "HgN/A
6:00 PM86 °FScattered clouds.6 mph79%29.83 "HgN/A
5:00 PM86 °FScattered clouds.8 mph75%29.80 "HgN/A
3:00 PM88 °FBroken clouds.9 mph75%29.80 "HgN/A
2:00 PM88 °FBroken clouds.7 mph75%29.83 "HgN/A
1:00 PM88 °FBroken clouds.8 mph75%29.86 "HgN/A
12:00 PM86 °FBroken clouds.2 mph79%29.89 "HgN/A
11:00 AM84 °FPassing clouds.1 mph79%29.89 "HgN/A
10:00 AM81 °FScattered clouds.No wind89%29.92 "HgN/A
9:00 AM79 °FScattered clouds.No wind89%29.92 "HgN/A
8:00 AM77 °FBroken clouds.No wind94%29.89 "HgN/A
7:00 AM77 °FPartly sunny.No wind89%29.86 "HgN/A
6:00 AM75 °FPartly cloudy.7 mph94%29.83 "HgN/A
5:00 AM75 °FPassing clouds.10 mph94%29.83 "Hg5 mi
4:00 AM75 °FPassing clouds.No wind94%29.80 "Hg5 mi
3:00 AM75 °FThunderstorms. Passing clouds.2 mph94%29.80 "Hg5 mi
2:00 AM75 °FThunderstorms. Partly cloudy.6 mph100%29.83 "Hg4 mi
Weather by CustomWeather, © 2015

See weather overviewHow to use our weather pages